When you browse on this site, cookies collect data to enhance your experience and personalize the content and advertising you see.
Visit our Privacy Policy to learn more. By continuing to use the site, you agree to this use of cookies and data.
  • In United Kingdom
  • List of Countries
  • For 7 days
  • Water Temperature
  • Satellite Maps
  • Weather Map
  • Weather Widgets
  • user-avatar
    Login

    Hourly Weather San José

    Today, 27 June, Thursday

    Time Temperature Precipitation Wind Pressure Humidity
    00:00 +18°C° 0 mm 2 mps 660 mmHg 79%
    01:00 +18°C° 0 mm 2 mps 660 mmHg 82%
    02:00 +18°C° 0 mm 2 mps 660 mmHg 84%
    03:00 +18°C° 0 mm 2 mps 659 mmHg 87%
    04:00 +19°C° 0 mm 2 mps 660 mmHg 87%
    05:00 +19°C° 0 mm 2 mps 660 mmHg 88%
    06:00 +19°C° 0 mm 2 mps 660 mmHg 89%
    07:00 +21°C° 0 mm 2 mps 661 mmHg 84%
    08:00 +23°C° 0 mm 2 mps 661 mmHg 78%
    09:00 +25°C° 0 mm 2 mps 662 mmHg 72%
    10:00 +25°C° 0.2 mm 2 mps 662 mmHg 70%
    11:00 +26°C° 0.2 mm 2 mps 662 mmHg 69%
    12:00 +27°C° 0.2 mm 2 mps 662 mmHg 67%
    13:00 +26°C° 0.9 mm 2 mps 661 mmHg 72%
    14:00 +26°C° 0.9 mm 2 mps 661 mmHg 76%
    15:00 +25°C° 0.9 mm 2 mps 660 mmHg 81%
    16:00 +24°C° 0.5 mm 1 mps 660 mmHg 85%
    17:00 +23°C° 0.5 mm 1 mps 660 mmHg 89%
    18:00 +21°C° 0.5 mm 1 mps 660 mmHg 93%
    19:00 +21°C° 0.1 mm 1 mps 660 mmHg 93%
    20:00 +20°C° 0.1 mm 2 mps 660 mmHg 93%
    21:00 +20°C° 0.1 mm 2 mps 661 mmHg 93%
    22:00 +20°C° 0 mm 2 mps 661 mmHg 94%
    23:00 +19°C° 0 mm 2 mps 660 mmHg 94%

    Tomorrow, 28 June, Friday

    Time Temperature Precipitation Wind Pressure Humidity
    00:00 +19°C° 0 mm 2 mps 660 mmHg 94%
    01:00 +19°C° 0.1 mm 2 mps 660 mmHg 94%
    02:00 +19°C° 0.1 mm 2 mps 660 mmHg 94%
    03:00 +19°C° 0.1 mm 2 mps 659 mmHg 94%
    04:00 +19°C° 0.1 mm 2 mps 660 mmHg 93%
    05:00 +19°C° 0.1 mm 2 mps 660 mmHg 92%
    06:00 +19°C° 0.1 mm 2 mps 660 mmHg 92%
    07:00 +21°C° 0 mm 2 mps 661 mmHg 83%
    08:00 +24°C° 0 mm 2 mps 662 mmHg 74%
    09:00 +25°C° 0 mm 2 mps 663 mmHg 65%
    10:00 +26°C° 0 mm 2 mps 663 mmHg 62%
    11:00 +27°C° 0 mm 2 mps 662 mmHg 59%
    12:00 +28°C° 0 mm 3 mps 662 mmHg 56%
    13:00 +27°C° 0.2 mm 2 mps 662 mmHg 59%
    14:00 +26°C° 0.2 mm 2 mps 661 mmHg 63%
    15:00 +26°C° 0.2 mm 2 mps 661 mmHg 66%
    16:00 +24°C° 0.1 mm 2 mps 660 mmHg 74%
    17:00 +23°C° 0.1 mm 1 mps 660 mmHg 81%
    18:00 +21°C° 0.1 mm 1 mps 660 mmHg 89%
    19:00 +21°C° 0 mm 1 mps 660 mmHg 89%
    20:00 +19°C° 0 mm 2 mps 661 mmHg 90%
    21:00 +19°C° 0 mm 2 mps 661 mmHg 90%
    22:00 +19°C° 0 mm 2 mps 661 mmHg 90%
    23:00 +19°C° 0 mm 2 mps 660 mmHg 89%

    Day after tomorrow, 29 June, Saturday

    Time Temperature Precipitation Wind Pressure Humidity
    00:00 +19°C° 0 mm 2 mps 660 mmHg 89%
    01:00 +20°C° 0 mm 1 mps 660 mmHg 90%
    02:00 +20°C° 0 mm 1 mps 660 mmHg 90%
    03:00 +20°C° 0 mm 1 mps 659 mmHg 91%
    04:00 +20°C° 0 mm 1 mps 660 mmHg 91%
    05:00 +19°C° 0 mm 2 mps 660 mmHg 91%
    06:00 +19°C° 0 mm 2 mps 660 mmHg 91%
    07:00 +21°C° 0 mm 2 mps 661 mmHg 85%
    08:00 +24°C° 0 mm 1 mps 662 mmHg 79%
    09:00 +25°C° 0 mm 1 mps 663 mmHg 73%
    10:00 +26°C° 0.6 mm 1 mps 663 mmHg 73%
    11:00 +26°C° 0.6 mm 1 mps 662 mmHg 74%
    12:00 +27°C° 0.6 mm 1 mps 662 mmHg 74%
    13:00 +26°C° 2.2 mm 1 mps 661 mmHg 80%
    14:00 +25°C° 2.2 mm 1 mps 661 mmHg 86%
    15:00 +24°C° 2.2 mm 1 mps 660 mmHg 92%
    16:00 +23°C° 1 mm 1 mps 660 mmHg 93%
    17:00 +22°C° 1 mm 1 mps 660 mmHg 95%
    18:00 +21°C° 1 mm 1 mps 660 mmHg 96%
    19:00 +21°C° 0 mm 1 mps 661 mmHg 95%
    20:00 +21°C° 0 mm 1 mps 661 mmHg 95%
    21:00 +20°C° 0 mm 1 mps 661 mmHg 94%
    22:00 +20°C° 0 mm 1 mps 661 mmHg 94%
    23:00 +20°C° 0 mm 1 mps 661 mmHg 93%

    30 June, Sunday

    Time Temperature Precipitation Wind Pressure Humidity
    00:00 +20°C° 0 mm 1 mps 661 mmHg 93%
    01:00 +19°C° 0 mm 1 mps 660 mmHg 93%
    02:00 +19°C° 0 mm 1 mps 660 mmHg 93%
    03:00 +19°C° 0 mm 1 mps 660 mmHg 93%
    04:00 +19°C° 0 mm 1 mps 660 mmHg 93%
    05:00 +20°C° 0 mm 1 mps 660 mmHg 93%
    06:00 +19°C° 0 mm 2 mps 660 mmHg 93%
    07:00 +21°C° 0 mm 2 mps 661 mmHg 86%
    08:00 +24°C° 0 mm 1 mps 662 mmHg 80%
    09:00 +26°C° 0 mm 1 mps 663 mmHg 73%
    10:00 +27°C° 0.3 mm 1 mps 663 mmHg 71%
    11:00 +27°C° 0.3 mm 2 mps 663 mmHg 68%
    12:00 +28°C° 0.3 mm 2 mps 662 mmHg 66%
    13:00 +27°C° 1.3 mm 1 mps 662 mmHg 73%
    14:00 +26°C° 1.3 mm 1 mps 661 mmHg 80%
    15:00 +25°C° 1.3 mm 1 mps 660 mmHg 87%
    16:00 +24°C° 0.6 mm 1 mps 660 mmHg 90%
    17:00 +23°C° 0.6 mm 1 mps 660 mmHg 93%
    18:00 +20°C° 0.6 mm 0 mps 660 mmHg 97%
    19:00 +21°C° 0 mm 1 mps 661 mmHg 97%
    20:00 +21°C° 0 mm 1 mps 661 mmHg 96%
    21:00 +21°C° 0 mm 1 mps 662 mmHg 96%
    22:00 +20°C° 0 mm 1 mps 662 mmHg 96%
    23:00 +20°C° 0 mm 1 mps 661 mmHg 96%

    1 July, Monday

    Time Temperature Precipitation Wind Pressure Humidity
    00:00 +20°C° 0 mm 1 mps 661 mmHg 95%
    01:00 +20°C° 0 mm 1 mps 661 mmHg 95%
    02:00 +20°C° 0 mm 1 mps 661 mmHg 95%
    03:00 +20°C° 0 mm 1 mps 660 mmHg 95%
    04:00 +20°C° 0.8 mm 1 mps 661 mmHg 95%
    05:00 +20°C° 0.8 mm 1 mps 661 mmHg 95%
    06:00 +20°C° 0.8 mm 1 mps 661 mmHg 95%
    07:00 +21°C° 0.7 mm 1 mps 662 mmHg 93%
    08:00 +22°C° 0.7 mm 1 mps 662 mmHg 91%
    09:00 +23°C° 0.7 mm 1 mps 663 mmHg 89%
    10:00 +24°C° 0.6 mm 1 mps 663 mmHg 83%
    11:00 +26°C° 0.6 mm 1 mps 663 mmHg 77%
    12:00 +27°C° 0.6 mm 1 mps 663 mmHg 71%
    13:00 +26°C° 1.3 mm 1 mps 662 mmHg 77%
    14:00 +25°C° 1.3 mm 1 mps 662 mmHg 83%
    15:00 +24°C° 1.3 mm 1 mps 661 mmHg 88%
    16:00 +23°C° 1.1 mm 1 mps 661 mmHg 91%
    17:00 +22°C° 1.1 mm 1 mps 661 mmHg 94%
    18:00 +22°C° 1.1 mm 1 mps 661 mmHg 96%
    19:00 +21°C° 0.4 mm 1 mps 661 mmHg 96%
    20:00 +21°C° 0.4 mm 1 mps 662 mmHg 96%
    21:00 +21°C° 0.4 mm 1 mps 662 mmHg 96%
    22:00 +21°C° 0.1 mm 1 mps 662 mmHg 96%
    23:00 +20°C° 0.1 mm 1 mps 661 mmHg 96%

    2 July, Tuesday

    Time Temperature Precipitation Wind Pressure Humidity
    00:00 +20°C° 0.1 mm 1 mps 661 mmHg 97%
    01:00 +20°C° 0 mm 1 mps 661 mmHg 96%
    02:00 +20°C° 0 mm 1 mps 661 mmHg 96%
    03:00 +20°C° 0 mm 1 mps 660 mmHg 95%
    04:00 +20°C° 0 mm 1 mps 660 mmHg 95%
    05:00 +20°C° 0 mm 1 mps 660 mmHg 94%
    06:00 +20°C° 0 mm 1 mps 660 mmHg 94%
    07:00 +22°C° 0.1 mm 1 mps 661 mmHg 88%
    08:00 +24°C° 0.1 mm 1 mps 662 mmHg 81%
    09:00 +26°C° 0.1 mm 1 mps 663 mmHg 75%
    10:00 +25°C° 1.5 mm 1 mps 662 mmHg 81%
    11:00 +24°C° 1.5 mm 1 mps 662 mmHg 86%
    12:00 +23°C° 1.5 mm 1 mps 662 mmHg 92%
    13:00 +23°C° 1.4 mm 1 mps 661 mmHg 93%
    14:00 +23°C° 1.4 mm 1 mps 661 mmHg 93%
    15:00 +23°C° 1.4 mm 1 mps 660 mmHg 93%
    16:00 +22°C° 0.6 mm 1 mps 660 mmHg 94%
    17:00 +22°C° 0.6 mm 1 mps 660 mmHg 96%
    18:00 +21°C° 0.6 mm 1 mps 661 mmHg 97%
    19:00 +21°C° 0.2 mm 1 mps 661 mmHg 97%
    20:00 +21°C° 0.2 mm 1 mps 661 mmHg 96%
    21:00 +21°C° 0.2 mm 1 mps 661 mmHg 96%
    22:00 +21°C° 0 mm 1 mps 661 mmHg 96%
    23:00 +19°C° 0 mm 0 mps 661 mmHg 96%
    Show more